Back to catalog

COSMOS 1275 DEB

AlivePO
NORAD 14558·DEBRIS·🇷🇺 Russia

Launched Jun 4, 1981 from Plesetsk Cosmodrome

Loading…

Next Passes (next 24 hours)

TLE

FreshSource: Space-Track

Epoch: Sep 14, 2026, 01:49 UTC

1 14558U 81053JN  26257.07585566  .00002713  00000-0  84860-3 0  9996
2 14558  82.9179 294.2786 0011846 287.1372 102.3312 14.40415973306424

Track COSMOS 1275 DEB in real time with AllMySat

Download on the App Store